Wind_Speed
12 10 9 11 9 6 6 8 4 9 10 12 17 22 23 21 23 26 25 28 25 26 27 29 28 27 34 36 40 44 44 48 51 55 59 62 64 68 72 78 83 88 92 99
19 17 16 18 15 13 10 6 7 10 10 14 17 17 22 20 22 26 27 26 28 29 27 33 31 32 35 38 43 45 49 51 54 57 61 68 67 68 71 79 84 90 94 99
22 23 24 23 23 23 14 13 9 10 14 16 18 18 20 20 21 26 30 30 30 34 35 34 37 37 39 39 44 46 49 52 56 60 65 69 71 71 75 80 85 89 96 99
25 25 24 26 27 29 29 22 17 15 18 20 17 29 22 17 21 23 31 32 35 34 37 37 39 40 39 40 43 49 50 54 58 60 66 69 75 74 78 83 86 92 97 100
26 26 32 31 27 28 27 30 33 31 32 33 30 30 33 28 23 19 26 32 37 39 39 40 42 42 44 47 46 50 53 57 57 62 66 70 76 78 78 83 88 93 97 101
31 29 32 36 35 32 33 31 28 28 29 33 34 34 42 38 33 31 30 31 38 42 41 43 45 46 46 51 51 54 56 59 60 64 67 71 76 79 81 84 89 93 98 102
39 42 41 37 40 37 34 36 32 29 24 26 36 37 39 35 37 37 35 33 39 43 44 46 48 50 52 53 54 57 57 63 62 65 68 71 75 79 84 88 90 95 98 103
51 48 46 45 39 41 38 38 36 34 27 26 32 35 38 35 36 35 37 38 40 43 45 48 50 51 51 52 56 57 60 64 64 66 69 72 76 81 85 89 93 94 99 104
56 49 42 43 39 37 43 39 42 38 36 32 29 37 47 40 40 42 39 41 45 47 43 48 53 50 51 53 57 56 59 63 65 69 69 74 78 82 86 91 96 94 98 103
59 52 50 48 48 45 45 46 42 41 35 33 34 34 45 48 50 49 46 44 43 45 46 53 56 52 54 55 56 55 60 62 66 68 70 74 80 82 87 90 96 96 97 101
54 55 54 51 51 55 51 48 50 44 43 45 42 35 40 51 52 51 55 49 45 44 46 53 58 54 55 55 53 57 60 63 66 68 70 73 80 83 86 89 95 97 97 101
71 72 70 65 63 55 60 52 53 51 50 46 51 48 50 50 51 53 55 51 50 54 52 48 51 54 59 57 56 57 60 64 66 66 70 72 78 81 84 89 93 95 97 99
77 73 64 67 63 66 58 57 57 59 56 51 50 56 60 55 55 56 60 58 56 58 54 52 54 52 60 57 57 60 63 63 63 66 72 73 78 80 83 89 92 95 98 99
72 73 66 69 76 75 54 64 62 59 57 57 56 62 62 68 64 60 59 62 66 64 61 57 56 54 57 58 62 64 64 59 62 69 76 76 77 78 84 88 91 93 97 98
78 77 80 79 78 71 56 62 67 69 68 69 69 70 67 68 68 65 64 72 68 68 65 61 59 60 57 66 63 60 64 60 66 73 75 75 76 78 83 88 89 92 97 99
85 77 79 74 75 73 76 76 73 80 81 75 80 70 71 72 71 70 73 73 71 75 75 70 59 61 64 67 60 60 65 65 71 70 75 76 76 80 85 88 89 92 96 99
91 92 93 88 92 95 87 89 85 78 78 85 85 80 83 79 79 83 80 78 76 78 81 75 66 65 70 67 66 64 66 71 68 73 78 78 79 82 85 86 87 93 97 95
105 104 106 101 102 105 98 81 75 85 85 86 87 88 92 92 87 85 86 82 81 85 80 81 75 72 70 73 76 73 66 70 75 78 81 82 80 83 85 85 88 93 96 92
111 114 112 114 111 105 94 82 84 87 88 96 92 98 98 95 91 92 91 91 86 85 83 84 83 79 84 80 68 67 73 78 83 80 83 79 80 85 86 85 89 91 93 91
115 112 113 118 114 104 92 97 99 95 102 106 102 99 99 97 95 98 94 95 86 82 78 80 82 85 79 76 77 75 82 87 80 84 83 83 84 81 82 86 88 85 89 88
108 112 117 122 111 108 101 99 98 102 107 108 106 97 97 99 100 94 89 83 80 78 82 80 79 79 80 80 82 84 87 80 83 85 83 79 80 77 85 87 84 84 85 86
126 125 118 127 131 119 102 112 108 108 106 100 101 102 106 108 106 102 93 93 96 88 85 85 87 87 89 87 79 82 81 85 86 80 74 74 74 80 85 86 82 85 85 83
130 126 126 125 121 123 110 108 110 109 112 111 112 110 108 106 105 100 101 95 80 83 84 81 83 80 82 80 81 82 85 84 77 71 73 73 76 83 81 83 82 80 83 81
137 130 127 130 121 122 128 122 120 121 118 117 119 114 110 103 102 92 88 87 78 76 73 72 74 76 74 80 84 83 81 69 71 72 75 77 76 77 77 80 84 81 81 81
152 145 141 142 131 123 126 118 118 123 116 113 109 108 105 100 93 91 93 91 87 80 75 72 70 74 73 73 73 72 70 73 74 73 72 76 80 75 80 82 83 82 81 79
144 135 131 114 114 113 114 113 112 113 114 112 108 106 105 104 96 92 86 80 79 84 83 76 72 74 74 76 80 74 72 71 70 71 79 76 73 75 80 79 79 79 78 79
Wind_Direction
262 282 282 300 304 314 345 17 14 14 17 27 14 358 9 22 21 18 15 13 19 21 16 13 8 1 359 354 351 351 348 346 347 349 349 349 347 350 350 350 350 351 349 351
255 270 270 280 285 290 294 304 323 342 319 337 341 353 356 357 2 5 7 5 8 6 2 357 2 358 353 355 353 353 351 348 345 347 348 350 347 348 349 349 350 352 349 350
278 270 269 276 280 284 277 289 292 312 310 316 330 320 347 344 345 350 350 356 354 355 351 351 350 349 346 347 345 347 346 347 344 344 347 348 349 348 349 349 350 350 350 351
281 284 286 284 286 289 282 281 288 300 307 311 324 308 323 337 334 333 341 344 346 347 348 344 344 346 343 343 344 345 343 343 342 341 345 346 347 348 346 348 349 350 350 353
270 285 292 285 286 302 298 285 287 290 298 300 312 309 304 324 322 324 324 335 338 340 338 341 340 341 340 336 339 339 341 340 339 338 342 343 345 347 345 346 347 350 350 353
266 276 290 286 281 293 299 294 296 291 297 301 307 311 300 312 315 320 319 322 328 332 331 333 333 335 334 335 335 335 337 337 339 338 339 341 343 345 345 345 346 349 349 352
275 272 286 283 281 284 289 294 293 292 295 302 299 301 303 312 313 310 313 313 318 323 325 326 328 330 331 332 332 334 333 337 335 336 338 340 342 342 344 344 346 348 348 351
279 273 282 279 274 280 282 286 289 291 289 298 305 297 299 301 308 312 310 311 312 314 318 322 324 326 329 330 329 331 331 334 333 332 337 338 339 340 342 342 345 346 347 349
271 272 279 273 267 274 285 284 282 287 287 285 300 300 297 301 307 311 314 305 308 310 309 316 319 319 325 326 326 330 330 330 332 330 332 335 338 339 340 341 342 345 347 349
267 267 280 274 262 278 286 275 278 280 290 282 288 297 298 302 300 304 307 308 316 316 306 309 315 314 319 322 324 324 328 328 329 328 331 332 335 336 338 339 341 343 345 347
264 267 277 269 262 277 284 274 274 276 285 285 289 291 290 299 298 301 302 300 309 316 311 306 311 308 315 317 319 320 321 324 326 329 330 330 331 333 336 337 339 341 343 344
274 274 277 269 268 276 288 271 276 268 279 285 288 291 291 288 293 298 301 296 302 309 309 315 312 309 311 312 312 316 317 322 324 328 327 328 328 331 335 336 337 339 342 344
270 269 269 265 267 278 276 270 272 277 278 281 288 288 287 290 292 297 297 294 295 300 304 311 311 309 309 311 309 310 314 321 323 323 321 323 325 329 332 333 335 337 339 342
263 260 268 261 271 271 266 271 270 274 275 275 283 284 281 289 291 286 290 293 293 296 300 306 306 305 305 306 306 308 313 319 319 317 319 322 323 327 330 331 332 334 337 340
256 255 261 262 269 260 265 266 269 265 278 277 276 279 277 282 287 282 284 290 298 294 298 298 304 303 298 304 306 307 313 312 313 315 318 321 323 325 327 329 331 331 335 337
257 259 259 264 258 257 269 275 285 273 275 273 273 275 277 279 279 280 283 289 294 295 295 298 297 298 300 301 301 301 308 307 310 315 318 319 322 323 326 327 329 330 333 335
260 263 262 262 262 264 274 284 282 271 272 272 275 276 271 276 276 276 283 289 288 290 292 292 293 298 297 296 297 299 303 304 307 311 315 318 319 321 324 325 326 328 331 334
264 265 270 269 269 270 277 275 266 269 270 272 272 273 275 277 280 278 276 285 289 287 286 288 289 292 293 294 296 299 297 302 306 309 313 316 316 320 322 323 325 327 329 332
265 265 268 270 270 270 274 266 264 266 269 275 275 272 272 273 274 277 281 284 288 286 283 285 288 290 293 295 289 289 295 300 305 307 311 313 314 318 320 320 323 325 330 329
264 266 269 271 269 270 264 267 265 269 274 273 272 271 273 275 276 279 281 282 283 281 281 281 285 288 289 289 288 288 297 298 304 309 311 310 311 315 316 318 319 322 325 327
258 265 270 267 269 267 267 273 272 274 270 272 271 269 271 271 277 280 280 279 278 278 279 283 284 284 283 286 288 290 293 295 302 304 307 308 309 313 316 316 315 318 323 324
263 267 265 269 271 269 270 272 272 272 270 268 269 271 273 277 277 278 276 276 282 279 275 280 279 282 280 285 285 288 288 293 300 302 302 308 307 312 316 311 313 316 320 320
264 264 263 264 266 270 272 271 271 271 271 271 270 273 276 275 277 277 279 279 277 277 276 278 278 280 281 282 284 285 288 294 297 297 305 305 305 310 307 309 309 312 319 319
258 260 259 259 261 265 269 270 270 271 270 272 272 274 272 274 277 277 277 278 280 274 275 277 280 279 280 283 283 283 288 290 296 300 301 302 303 307 306 306 307 309 315 316
259 259 262 263 265 266 266 268 267 267 266 266 268 270 271 271 270 269 273 272 279 275 269 275 277 277 280 281 283 284 286 291 294 297 299 302 308 304 304 305 304 307 310 315
263 265 265 266 265 264 265 263 265 264 263 265 267 270 271 271 269 270 272 271 271 272 272 275 275 275 276 280 284 284 286 291 294 298 304 306 305 301 298 298 302 305 311 315
Height
10718 10719 10720 10720 10720 10720 10720 10718 10717 10715 10715 10714 10712 10710 10706 10701 10698 10694 10690 10687 10683 10679 10675 10671 10667 10663 10658 10653 10647 10641 10633 10625 10617 10608 10598 10588 10576 10564 10551 10537 10521 10504 10486 10468
10714 10714 10715 10715 10716 10716 10716 10715 10713 10711 10710 10709 10708 10706 10702 10699 10695 10691 10688 10684 10680 10676 10672 10668 10664 10658 10653 10646 10640 10634 10627 10619 10610 10601 10591 10580 10569 10558 10545 10530 10513 10495 10477 10457
10708 10709 10710 10711 10711 10711 10711 10710 10709 10708 10705 10704 10702 10700 10700 10695 10691 10688 10685 10680 10676 10672 10669 10664 10659 10654 10648 10641 10635 10628 10620 10612 10603 10594 10584 10573 10561 10549 10536 10521 10506 10487 10468 10448
10701 10702 10704 10705 10706 10706 10705 10705 10705 10703 10701 10698 10698 10690 10693 10693 10688 10683 10679 10674 10670 10667 10664 10659 10654 10648 10643 10636 10629 10622 10614 10605 10596 10586 10576 10565 10553 10540 10527 10512 10496 10479 10460 10443
10693 10695 10697 10699 10699 10700 10700 10700 10699 10698 10696 10693 10692 10689 10683 10687 10685 10680 10675 10671 10666 10662 10658 10654 10649 10644 10637 10630 10623 10615 10607 10598 10589 10578 10568 10557 10545 10533 10520 10505 10490 10474 10456 10437
10685 10686 10689 10691 10691 10692 10692 10692 10693 10692 10690 10687 10684 10683 10674 10679 10678 10675 10670 10666 10662 10658 10654 10649 10643 10638 10632 10624 10617 10608 10600 10591 10582 10571 10561 10549 10539 10526 10512 10498 10483 10466 10447 10429
10675 10678 10680 10681 10682 10683 10683 10683 10685 10685 10683 10681 10676 10674 10672 10672 10670 10668 10665 10661 10657 10653 10648 10643 10636 10631 10625 10617 10609 10601 10593 10585 10575 10565 10553 10542 10531 10519 10505 10491 10475 10459 10441 10423
10664 10668 10669 10670 10672 10673 10674 10674 10674 10676 10676 10674 10669 10664 10662 10664 10663 10661 10658 10655 10651 10646 10640 10635 10628 10623 10617 10610 10602 10594 10586 10577 10568 10557 10547 10535 10524 10512 10499 10484 10469 10453 10435 10419
10650 10657 10658 10659 10661 10663 10666 10665 10663 10666 10668 10668 10665 10658 10648 10652 10651 10650 10649 10647 10644 10639 10633 10628 10622 10616 10610 10604 10596 10588 10579 10570 10561 10551 10541 10528 10517 10505 10493 10478 10464 10449 10432 10415
10639 10643 10647 10649 10650 10651 10653 10653 10654 10654 10657 10657 10656 10653 10641 10639 10639 10640 10639 10636 10635 10631 10626 10621 10615 10608 10603 10597 10590 10581 10571 10563 10554 10544 10533 10522 10510 10498 10486 10472 10458 10444 10428 10410
10623 10628 10633 10636 10638 10637 10642 10643 10642 10641 10644 10644 10646 10645 10639 10630 10628 10628 10627 10626 10624 10621 10618 10614 10607 10600 10594 10588 10582 10573 10564 10556 10547 10537 10527 10516 10503 10491 10479 10466 10453 10439 10423 10406
10607 10613 10618 10622 10625 10625 10629 10629 10628 10627 10632 10634 10634 10635 10627 10622 10619 10618 10615 10615 10613 10611 10610 10607 10601 10591 10583 10578 10571 10564 10555 10548 10539 10530 10519 10509 10497 10484 10471 10460 10447 10433 10419 10402
10593 10599 10601 10605 10609 10612 10616 10613 10614 10615 10619 10624 10621 10621 10615 10610 10607 10605 10601 10601 10601 10601 10600 10597 10594 10588 10575 10569 10563 10555 10547 10540 10530 10521 10512 10502 10490 10477 10465 10453 10441 10427 10413 10398
10575 10580 10585 10589 10591 10597 10601 10600 10601 10602 10607 10607 10611 10606 10599 10596 10595 10589 10588 10586 10587 10587 10588 10586 10582 10579 10569 10558 10552 10545 10537 10531 10522 10513 10505 10494 10483 10470 10458 10446 10434 10420 10407 10393
10558 10563 10566 10570 10573 10578 10585 10589 10589 10591 10590 10590 10594 10593 10585 10581 10578 10575 10573 10571 10576 10575 10575 10573 10570 10566 10559 10549 10542 10535 10529 10522 10513 10505 10496 10486 10474 10462 10451 10439 10428 10415 10402 10388
10538 10543 10546 10551 10553 10558 10569 10577 10576 10579 10576 10572 10571 10580 10570 10565 10565 10562 10557 10559 10564 10559 10559 10559 10555 10551 10548 10541 10533 10524 10519 10511 10504 10496 10487 10477 10466 10454 10444 10432 10422 10409 10396 10383
10520 10525 10527 10536 10533 10534 10554 10562 10558 10560 10558 10551 10554 10557 10547 10550 10549 10546 10546 10548 10548 10547 10544 10544 10542 10538 10534 10530 10522 10514 10506 10500 10494 10486 10478 10467 10457 10446 10436 10425 10415 10403 10389 10377
10501 10501 10505 10513 10511 10514 10540 10540 10540 10537 10535 10530 10531 10534 10527 10527 10535 10532 10528 10535 10534 10533 10531 10529 10527 10524 10519 10515 10509 10501 10494 10488 10482 10474 10467 10458 10447 10437 10427 10418 10408 10397 10384 10372
10474 10475 10478 10481 10486 10502 10520 10517 10513 10516 10517 10509 10509 10504 10506 10512 10515 10509 10517 10517 10518 10517 10515 10513 10511 10509 10505 10500 10494 10488 10481 10476 10471 10464 10456 10447 10437 10428 10419 10410 10401 10391 10379 10365
10445 10445 10447 10456 10460 10477 10496 10487 10489 10493 10498 10480 10481 10484 10486 10491 10495 10490 10496 10501 10500 10498 10496 10495 10494 10492 10488 10484 10479 10474 10469 10464 10458 10452 10444 10436 10427 10419 10410 10401 10393 10383 10372 10359
10417 10421 10423 10424 10427 10456 10467 10462 10460 10467 10460 10457 10462 10465 10464 10463 10470 10473 10475 10479 10481 10481 10480 10478 10476 10474 10471 10467 10464 10460 10456 10450 10445 10439 10432 10424 10417 10409 10401 10392 10383 10374 10365 10351
10398 10392 10402 10400 10401 10425 10433 10432 10439 10438 10436 10430 10440 10442 10440 10439 10444 10452 10457 10459 10463 10462 10461 10459 10457 10455 10452 10450 10447 10445 10442 10436 10431 10426 10420 10413 10406 10399 10390 10382 10372 10365 10357 10344
10365 10377 10370 10373 10389 10400 10410 10409 10408 10405 10404 10405 10413 10416 10418 10415 10418 10425 10432 10435 10438 10440 10440 10438 10435 10436 10436 10433 10431 10429 10426 10423 10418 10412 10407 10400 10394 10387 10378 10371 10362 10356 10347 10335
10340 10349 10345 10351 10385 10382 10378 10380 10383 10377 10370 10370 10377 10392 10394 10395 10396 10397 10402 10410 10415 10416 10416 10419 10419 10417 10418 10415 10412 10411 10411 10407 10403 10399 10394 10388 10381 10374 10365 10359 10351 10346 10337 10326
10311 10318 10330 10328 10356 10355 10352 10345 10340 10344 10351 10346 10352 10358 10368 10371 10373 10375 10379 10383 10389 10393 10398 10397 10400 10402 10400 10398 10394 10395 10393 10390 10387 10384 10379 10374 10368 10361 10352 10346 10337 10333 10326 10316
10287 10292 10294 10307 10313 10315 10312 10315 10313 10314 10318 10320 10327 10331 10337 10346 10349 10353 10355 10359 10361 10368 10373 10378 10381 10383 10383 10380 10377 10377 10375 10373 10370 10366 10361 10357 10353 10346 10337 10330 10323 10320 10314 10306